| time (UTC) | temp F | wind direction | speed MPH | gust MPH | rain 1hr in | rain 24hr in | rain mn in | humidity % | barometer mb |
| 20260507193035 | 59 | 276 | 7.0 | 8.0 | 0.00 | 0.00 | 0.00 | 32 | 1010.4 |
| 20260507192531 | 59 | 250 | 8.0 | 9.0 | 0.00 | 0.00 | 0.00 | 28 | 1010.5 |
| 20260507192028 | 59 | 306 | 7.0 | 8.0 | 0.00 | 0.00 | 0.00 | 28 | 1010.3 |
| 20260507191523 | 59 | 318 | 6.0 | 7.0 | 0.00 | 0.00 | 0.00 | 28 | 1010.2 |
| 20260507191021 | 59 | 294 | 9.0 | 10.0 | 0.00 | 0.00 | 0.00 | 31 | 1010.1 |
| 20260507190518 | 59 | 243 | 4.0 | 5.0 | 0.00 | 0.00 | 0.00 | 32 | 1010.3 |
| 20260507190017 | 59 | 301 | 8.0 | 9.0 | 0.00 | 0.00 | 0.00 | 30 | 1010.5 |
| 20260507185514 | 59 | 257 | 8.0 | 10.0 | 0.00 | 0.00 | 0.00 | 30 | 1010.5 |
| 20260507185010 | 59 | 238 | 3.0 | 3.0 | 0.00 | 0.00 | 0.00 | 32 | 1010.5 |
| 20260507184509 | 59 | 286 | 7.0 | 8.0 | 0.00 | 0.00 | 0.00 | 31 | 1010.4 |
| 20260507184007 | 59 | 315 | 11.0 | 15.0 | 0.00 | 0.00 | 0.00 | 30 | 1010.5 |
| 20260507183502 | 59 | 324 | 7.0 | 8.0 | 0.00 | 0.00 | 0.00 | 33 | 1010.3 |
| 20260507183000 | 58 | 330 | 5.0 | 7.0 | 0.00 | 0.00 | 0.00 | 31 | 1010.7 |
| 20260507182455 | 58 | 277 | 7.0 | 7.0 | 0.00 | 0.00 | 0.00 | 31 | 1010.7 |
| 20260507181951 | 57 | 300 | 9.0 | 10.0 | 0.00 | 0.00 | 0.00 | 30 | 1010.8 |
| 20260507181448 | 59 | 237 | 6.0 | 8.0 | 0.00 | 0.00 | 0.00 | 31 | 1010.8 |
| 20260507180945 | 58 | 304 | 10.0 | 11.0 | 0.00 | 0.00 | 0.00 | 31 | 1010.8 |
| 20260507180441 | 58 | 319 | 5.0 | 7.0 | 0.00 | 0.00 | 0.00 | 32 | 1010.9 |
| 20260507175938 | 57 | 304 | 3.0 | 3.0 | 0.00 | 0.00 | 0.00 | 32 | 1010.9 |
| 20260507175434 | 57 | 336 | 9.0 | 10.0 | 0.00 | 0.00 | 0.00 | 33 | 1011.2 |
| 20260507174932 | 58 | 295 | 9.0 | 13.0 | 0.00 | 0.00 | 0.00 | 33 | 1011.1 |
| 20260507174429 | 57 | 233 | 4.0 | 5.0 | 0.00 | 0.00 | 0.00 | 35 | 1011.1 |
| 20260507173927 | 57 | 14 | 4.0 | 6.0 | 0.00 | 0.00 | 0.00 | 38 | 1011.2 |
| 20260507173424 | 57 | 223 | 6.0 | 7.0 | 0.00 | 0.00 | 0.00 | 38 | 1011.1 |
| 20260507172920 | 55 | 198 | 2.0 | 2.0 | 0.00 | 0.00 | 0.00 | 40 | 1011.2 |
| 20260507172417 | 55 | 240 | 3.0 | 5.0 | 0.00 | 0.00 | 0.00 | 35 | 1011.3 |
| 20260507171913 | 55 | 258 | 3.0 | 5.0 | 0.00 | 0.00 | 0.00 | 38 | 1011.3 |
| 20260507171409 | 55 | 277 | 4.0 | 5.0 | 0.00 | 0.00 | 0.00 | 37 | 1011.4 |
| 20260507170907 | 55 | 283 | 3.0 | 6.0 | 0.00 | 0.00 | 0.00 | 40 | 1011.3 |
| 20260507170403 | 55 | 284 | 9.0 | 11.0 | 0.00 | 0.00 | 0.00 | 39 | 1011.5 |
| 20260507165859 | 55 | 178 | 3.0 | 5.0 | 0.00 | 0.00 | 0.00 | 39 | 1011.7 |
| 20260507165355 | 53 | 141 | 1.0 | 2.0 | 0.00 | 0.00 | 0.00 | 37 | 1011.9 |
| 20260507164851 | 54 | 322 | 6.0 | 8.0 | 0.00 | 0.00 | 0.00 | 36 | 1011.9 |
| 20260507164349 | 54 | 228 | 5.0 | 5.0 | 0.00 | 0.00 | 0.00 | 40 | 1011.6 |
| 20260507163846 | 53 | 289 | 3.0 | 3.0 | 0.00 | 0.00 | 0.00 | 39 | 1012.0 |
| 20260507163343 | 53 | 339 | 5.0 | 7.0 | 0.00 | 0.00 | 0.00 | 41 | 1012.0 |
| 20260507162840 | 53 | 277 | 7.0 | 8.0 | 0.00 | 0.00 | 0.00 | 43 | 1012.0 |
| 20260507162335 | 52 | 286 | 4.0 | 7.0 | 0.00 | 0.00 | 0.00 | 46 | 1012.0 |
| 20260507161832 | 52 | 290 | 5.0 | 6.0 | 0.00 | 0.00 | 0.00 | 43 | 1012.1 |
| 20260507161329 | 51 | 174 | 3.0 | 5.0 | 0.00 | 0.00 | 0.00 | 49 | 1012.0 |
| 20260507160825 | 51 | 237 | 5.0 | 6.0 | 0.00 | 0.00 | 0.00 | 47 | 1012.1 |
| 20260507160321 | 51 | 268 | 4.0 | 5.0 | 0.00 | 0.00 | 0.00 | 49 | 1012.3 |
| 20260507155818 | 50 | 237 | 3.0 | 6.0 | 0.00 | 0.00 | 0.00 | 48 | 1012.2 |
| 20260507155314 | 51 | 240 | 5.0 | 6.0 | 0.00 | 0.00 | 0.00 | 48 | 1012.2 |
| 20260507154810 | 49 | 217 | 3.0 | 3.0 | 0.00 | 0.00 | 0.00 | 48 | 1012.4 |
| 20260507154308 | 49 | 312 | 4.0 | 5.0 | 0.00 | 0.00 | 0.00 | 50 | 1012.3 |
| 20260507153804 | 48 | 236 | 5.0 | 6.0 | 0.00 | 0.00 | 0.00 | 50 | 1012.3 |
| 20260507153301 | 48 | 284 | 1.0 | 2.0 | 0.00 | 0.00 | 0.00 | 50 | 1012.3 |
| 20260507152757 | 48 | 236 | 4.0 | 5.0 | 0.00 | 0.00 | 0.00 | 52 | 1012.5 |
| 20260507152254 | 47 | 148 | 1.0 | 1.0 | 0.00 | 0.00 | 0.00 | 54 | 1012.4 |
| 20260507151749 | 48 | 214 | 5.0 | 6.0 | 0.00 | 0.00 | 0.00 | 50 | 1012.2 |
| 20260507151246 | 47 | 254 | 3.0 | 3.0 | 0.00 | 0.00 | 0.00 | 51 | 1012.4 |
| 20260507150743 | 46 | 226 | 2.0 | 2.0 | 0.00 | 0.00 | 0.00 | 53 | 1012.6 |
| 20260507150240 | 46 | 249 | 2.0 | 3.0 | 0.00 | 0.00 | 0.00 | 52 | 1012.5 |
| 20260507145736 | 45 | 283 | 4.0 | 5.0 | 0.00 | 0.00 | 0.00 | 52 | 1012.6 |
| 20260507145232 | 45 | 240 | 5.0 | 6.0 | 0.00 | 0.00 | 0.00 | 51 | 1012.4 |
| 20260507144730 | 45 | 253 | 4.0 | 5.0 | 0.00 | 0.00 | 0.00 | 52 | 1012.4 |
| 20260507144227 | 44 | 231 | 2.0 | 2.0 | 0.00 | 0.00 | 0.00 | 52 | 1012.5 |
| 20260507143723 | 44 | 301 | 3.0 | 3.0 | 0.00 | 0.00 | 0.00 | 53 | 1012.5 |
| 20260507143221 | 44 | 174 | 1.0 | 1.0 | 0.00 | 0.00 | 0.00 | 53 | 1012.5 |
| 20260507142717 | 43 | 286 | 2.0 | 2.0 | 0.00 | 0.00 | 0.00 | 54 | 1012.4 |
| 20260507142214 | 43 | 127 | 0.0 | 1.0 | 0.00 | 0.00 | 0.00 | 58 | 1012.6 |
| 20260507141710 | 42 | 238 | 1.0 | 1.0 | 0.00 | 0.00 | 0.00 | 58 | 1012.5 |
| 20260507141207 | 41 | 133 | 1.0 | 1.0 | 0.00 | 0.00 | 0.00 | 58 | 1012.5 |
| 20260507140703 | 41 | 219 | 2.0 | 3.0 | 0.00 | 0.00 | 0.00 | 59 | 1012.5 |
| 20260507140201 | 41 | 209 | 1.0 | 2.0 | 0.00 | 0.00 | 0.00 | 59 | 1012.3 |
| 20260507135657 | 41 | 172 | 3.0 | 3.0 | 0.00 | 0.00 | 0.00 | 60 | 1012.5 |
| 20260507135155 | 40 | 200 | 2.0 | 2.0 | 0.00 | 0.00 | 0.00 | 62 | 1012.5 |
| 20260507134651 | 41 | 154 | 1.0 | 2.0 | 0.00 | 0.00 | 0.00 | 62 | 1012.3 |
| 20260507134147 | 39 | 73 | 1.0 | 1.0 | 0.00 | 0.00 | 0.00 | 64 | 1012.1 |
| 20260507133643 | 40 | 44 | 1.0 | 1.0 | 0.00 | 0.00 | 0.00 | 63 | 1012.3 |
| 20260507133141 | 39 | 151 | 1.0 | 1.0 | 0.00 | 0.00 | 0.00 | 61 | 1012.2 |
| 20260507132638 | 39 | 79 | 0.0 | 0.0 | 0.00 | 0.00 | 0.00 | 61 | 1012.3 |
| 20260507132134 | 39 | 105 | 0.0 | 0.0 | 0.00 | 0.00 | 0.00 | 61 | 1012.3 |
| 20260507131631 | 39 | 98 | 0.0 | 0.0 | 0.00 | 0.00 | 0.00 | 61 | 1012.5 |
| 20260507131129 | 39 | 103 | 0.0 | 0.0 | 0.00 | 0.00 | 0.00 | 61 | 1012.3 |
| 20260507130625 | 39 | 100 | 0.0 | 0.0 | 0.00 | 0.00 | 0.00 | 61 | 1012.1 |
| 20260507130123 | 39 | 88 | 0.0 | 0.0 | 0.00 | 0.00 | 0.00 | 61 | 1012.2 |
| 20260507125622 | 38 | 82 | 0.0 | 0.0 | 0.00 | 0.00 | 0.00 | 61 | 1012.1 |
| 20260507125119 | 38 | 86 | 0.0 | 0.0 | 0.00 | 0.00 | 0.00 | 61 | 1011.9 |
| 20260507124615 | 39 | 81 | 0.0 | 0.0 | 0.00 | 0.00 | 0.00 | 60 | 1012.1 |
| 20260507124113 | 39 | 74 | 0.0 | 0.0 | 0.00 | 0.00 | 0.00 | 62 | 1012.2 |
| 20260507123611 | 36 | 74 | 0.0 | 0.0 | 0.00 | 0.00 | 0.00 | 64 | 1012.0 |
| 20260507123107 | 33 | 74 | 0.0 | 0.0 | 0.00 | 0.00 | 0.00 | 68 | 1012.0 |
| 20260507122603 | 33 | 74 | 0.0 | 0.0 | 0.00 | 0.00 | 0.00 | 67 | 1012.1 |
| 20260507122059 | 32 | 73 | 0.0 | 0.0 | 0.00 | 0.00 | 0.00 | 70 | 1011.8 |
| 20260507121554 | 30 | 68 | 0.0 | 0.0 | 0.00 | 0.00 | 0.00 | 70 | 1011.9 |
| 20260507121051 | 30 | 85 | 0.0 | 0.0 | 0.00 | 0.00 | 0.00 | 70 | 1011.8 |
| 20260507120547 | 30 | 80 | 0.0 | 0.0 | 0.00 | 0.00 | 0.00 | 70 | 1011.8 |
| 20260507120044 | 30 | 81 | 0.0 | 0.0 | 0.00 | 0.00 | 0.00 | 70 | 1011.7 |
| 20260507115540 | 31 | 75 | 1.0 | 1.0 | 0.00 | 0.00 | 0.00 | 70 | 1011.5 |
| 20260507115036 | 30 | 75 | 1.0 | 1.0 | 0.00 | 0.00 | 0.00 | 71 | 1011.5 |
| 20260507114532 | 30 | 72 | 1.0 | 1.0 | 0.00 | 0.00 | 0.00 | 72 | 1011.5 |
| 20260507114030 | 30 | 73 | 2.0 | 2.0 | 0.00 | 0.00 | 0.00 | 72 | 1011.5 |
| 20260507113527 | 29 | 73 | 1.0 | 2.0 | 0.00 | 0.00 | 0.00 | 73 | 1011.5 |
| 20260507113024 | 29 | 71 | 1.0 | 1.0 | 0.00 | 0.00 | 0.00 | 72 | 1011.5 |
| 20260507112521 | 29 | 69 | 1.0 | 2.0 | 0.00 | 0.00 | 0.00 | 72 | 1011.4 |
| 20260507112018 | 29 | 70 | 1.0 | 2.0 | 0.00 | 0.00 | 0.00 | 72 | 1011.5 |
| 20260507111515 | 29 | 68 | 2.0 | 2.0 | 0.00 | 0.00 | 0.00 | 72 | 1011.5 |
| 20260507111011 | 30 | 75 | 1.0 | 2.0 | 0.00 | 0.00 | 0.00 | 72 | 1011.5 |
| 20260507110508 | 29 | 62 | 1.0 | 2.0 | 0.00 | 0.00 | 0.00 | 72 | 1011.6 |
| 20260507110005 | 29 | 72 | 1.0 | 1.0 | 0.00 | 0.00 | 0.00 | 73 | 1011.5 |
| 20260507105501 | 29 | 75 | 1.0 | 1.0 | 0.00 | 0.00 | 0.00 | 73 | 1011.7 |
| 20260507104958 | 29 | 68 | 1.0 | 1.0 | 0.00 | 0.00 | 0.00 | 73 | 1011.5 |
| 20260507104455 | 29 | 81 | 0.0 | 1.0 | 0.00 | 0.00 | 0.00 | 73 | 1011.6 |
| 20260507103950 | 28 | 82 | 0.0 | 1.0 | 0.00 | 0.00 | 0.00 | 73 | 1011.7 |
| 20260507103447 | 28 | 75 | 1.0 | 1.0 | 0.00 | 0.00 | 0.00 | 74 | 1011.7 |
| 20260507102944 | 27 | 85 | 0.0 | 1.0 | 0.00 | 0.00 | 0.00 | 74 | 1011.7 |
| 20260507102441 | 28 | 86 | 1.0 | 1.0 | 0.00 | 0.00 | 0.00 | 73 | 1011.8 |
| 20260507101937 | 28 | 63 | 1.0 | 1.0 | 0.00 | 0.00 | 0.00 | 73 | 1011.8 |
| 20260507101432 | 28 | 67 | 1.0 | 2.0 | 0.00 | 0.00 | 0.00 | 72 | 1011.7 |
| 20260507100929 | 29 | 63 | 1.0 | 1.0 | 0.00 | 0.00 | 0.00 | 72 | 1011.7 |
| 20260507100426 | 29 | 69 | 2.0 | 2.0 | 0.00 | 0.00 | 0.00 | 71 | 1011.9 |
| 20260507095925 | 29 | 87 | 0.0 | 0.0 | 0.00 | 0.00 | 0.00 | 71 | 1012.0 |
| 20260507095421 | 29 | 58 | 1.0 | 2.0 | 0.00 | 0.00 | 0.00 | 70 | 1011.9 |
| 20260507094919 | 30 | 71 | 2.0 | 2.0 | 0.00 | 0.00 | 0.00 | 69 | 1011.8 |
| 20260507094415 | 30 | 59 | 3.0 | 3.0 | 0.00 | 0.00 | 0.00 | 69 | 1011.8 |
| 20260507093912 | 30 | 58 | 3.0 | 3.0 | 0.00 | 0.00 | 0.00 | 69 | 1011.8 |
| 20260507093410 | 30 | 65 | 3.0 | 3.0 | 0.00 | 0.00 | 0.00 | 69 | 1011.8 |
| 20260507092908 | 30 | 56 | 2.0 | 2.0 | 0.00 | 0.00 | 0.00 | 69 | 1011.9 |
| 20260507092404 | 30 | 58 | 3.0 | 3.0 | 0.00 | 0.00 | 0.00 | 69 | 1011.7 |
| 20260507091901 | 30 | 58 | 3.0 | 3.0 | 0.00 | 0.00 | 0.00 | 69 | 1012.0 |
| 20260507091357 | 30 | 57 | 3.0 | 3.0 | 0.00 | 0.00 | 0.00 | 69 | 1011.9 |
| 20260507090852 | 30 | 79 | 2.0 | 2.0 | 0.00 | 0.00 | 0.00 | 68 | 1011.9 |
| 20260507090349 | 31 | 64 | 2.0 | 2.0 | 0.00 | 0.00 | 0.00 | 67 | 1012.2 |
| 20260507085846 | 32 | 56 | 3.0 | 3.0 | 0.00 | 0.00 | 0.00 | 66 | 1011.7 |
| 20260507085343 | 32 | 56 | 2.0 | 2.0 | 0.00 | 0.00 | 0.00 | 67 | 1012.0 |
| 20260507084840 | 31 | 54 | 1.0 | 2.0 | 0.00 | 0.00 | 0.00 | 67 | 1011.8 |
| 20260507084336 | 31 | 59 | 2.0 | 2.0 | 0.00 | 0.00 | 0.00 | 68 | 1011.8 |
| 20260507083834 | 32 | 59 | 1.0 | 1.0 | 0.00 | 0.00 | 0.00 | 66 | 1011.7 |
| 20260507083330 | 32 | 64 | 2.0 | 2.0 | 0.00 | 0.00 | 0.00 | 66 | 1011.8 |
| 20260507082826 | 32 | 55 | 2.0 | 2.0 | 0.00 | 0.00 | 0.00 | 66 | 1011.7 |
| 20260507082322 | 32 | 61 | 2.0 | 2.0 | 0.00 | 0.00 | 0.00 | 66 | 1011.6 |
| 20260507081820 | 32 | 57 | 2.0 | 2.0 | 0.00 | 0.00 | 0.00 | 66 | 1011.8 |
| 20260507081315 | 32 | 59 | 2.0 | 2.0 | 0.00 | 0.00 | 0.00 | 67 | 1011.7 |
| 20260507080812 | 31 | 56 | 0.0 | 0.0 | 0.00 | 0.00 | 0.00 | 68 | 1011.8 |
| 20260507080309 | 30 | 73 | 0.0 | 0.0 | 0.00 | 0.00 | 0.00 | 70 | 1011.6 |
| 20260507075804 | 28 | 53 | 0.0 | 0.0 | 0.00 | 0.00 | 0.00 | 72 | 1011.5 |
| 20260507075300 | 28 | 82 | 0.0 | 0.0 | 0.00 | 0.00 | 0.00 | 71 | 1011.8 |
| 20260507074757 | 30 | 82 | 0.0 | 0.0 | 0.00 | 0.00 | 0.00 | 69 | 1011.7 |
| 20260507074255 | 30 | 72 | 0.0 | 0.0 | 0.00 | 0.00 | 0.00 | 69 | 1011.8 |
| 20260507073751 | 30 | 71 | 0.0 | 0.0 | 0.00 | 0.00 | 0.00 | 69 | 1011.7 |
| 20260507073248 | 29 | 71 | 0.0 | 0.0 | 0.00 | 0.00 | 0.00 | 70 | 1011.8 |
| 20260507072746 | 28 | 73 | 0.0 | 0.0 | 0.00 | 0.00 | 0.00 | 70 | 1011.7 |
| 20260507072243 | 30 | 73 | 0.0 | 0.0 | 0.00 | 0.00 | 0.00 | 68 | 1011.7 |
| 20260507071740 | 31 | 73 | 0.0 | 0.0 | 0.00 | 0.00 | 0.00 | 67 | 1011.6 |
| 20260507071236 | 32 | 73 | 0.0 | 0.0 | 0.00 | 0.00 | 0.00 | 65 | 1011.7 |
| 20260507070734 | 32 | 67 | 0.0 | 0.0 | 0.00 | 0.00 | 0.00 | 65 | 1011.8 |
| 20260507070230 | 32 | 52 | 0.0 | 0.0 | 0.00 | 0.00 | 0.00 | 65 | 1011.7 |
| 20260507065727 | 32 | 100 | 0.0 | 0.0 | 0.00 | 0.00 | 0.00 | 65 | 1011.7 |
| 20260507065223 | 33 | 158 | 0.0 | 0.0 | 0.00 | 0.00 | 0.00 | 64 | 1011.9 |
| 20260507064721 | 33 | 139 | 1.0 | 1.0 | 0.00 | 0.00 | 0.00 | 64 | 1012.0 |
| 20260507064215 | 34 | 107 | 2.0 | 2.0 | 0.00 | 0.00 | 0.00 | 62 | 1011.7 |
| 20260507063711 | 34 | 88 | 2.0 | 2.0 | 0.00 | 0.00 | 0.00 | 62 | 1011.8 |
| 20260507063208 | 34 | 90 | 2.0 | 2.0 | 0.00 | 0.00 | 0.00 | 63 | 1012.2 |
| 20260507062705 | 34 | 93 | 1.0 | 2.0 | 0.00 | 0.00 | 0.00 | 62 | 1011.9 |
| 20260507062203 | 34 | 127 | 3.0 | 3.0 | 0.00 | 0.00 | 0.00 | 62 | 1011.9 |
| 20260507061700 | 34 | 107 | 2.0 | 2.0 | 0.00 | 0.00 | 0.00 | 62 | 1011.8 |
| 20260507061158 | 34 | 100 | 2.0 | 2.0 | 0.00 | 0.00 | 0.00 | 63 | 1011.9 |
| 20260507060656 | 33 | 96 | 1.0 | 2.0 | 0.00 | 0.00 | 0.00 | 63 | 1012.0 |
| 20260507060152 | 34 | 86 | 1.0 | 1.0 | 0.00 | 0.00 | 0.00 | 62 | 1012.1 |
| 20260507055648 | 34 | 87 | 3.0 | 3.0 | 0.00 | 0.00 | 0.00 | 62 | 1011.7 |
| 20260507055144 | 34 | 89 | 2.0 | 2.0 | 0.00 | 0.00 | 0.00 | 61 | 1011.9 |
| 20260507054640 | 34 | 94 | 3.0 | 3.0 | 0.00 | 0.00 | 0.00 | 61 | 1012.0 |
| 20260507054137 | 35 | 73 | 3.0 | 3.0 | 0.00 | 0.00 | 0.00 | 61 | 1012.0 |
| 20260507053635 | 35 | 103 | 3.0 | 3.0 | 0.00 | 0.00 | 0.00 | 61 | 1012.0 |
| 20260507053133 | 35 | 101 | 3.0 | 3.0 | 0.00 | 0.00 | 0.00 | 61 | 1012.0 |
| 20260507052631 | 35 | 101 | 3.0 | 3.0 | 0.00 | 0.00 | 0.00 | 60 | 1012.1 |
| 20260507052127 | 35 | 99 | 3.0 | 3.0 | 0.00 | 0.00 | 0.00 | 60 | 1012.0 |
| 20260507051624 | 36 | 105 | 3.0 | 3.0 | 0.00 | 0.00 | 0.00 | 59 | 1012.0 |
| 20260507051121 | 36 | 110 | 3.0 | 3.0 | 0.00 | 0.00 | 0.00 | 58 | 1011.9 |
| 20260507050618 | 36 | 116 | 4.0 | 5.0 | 0.00 | 0.00 | 0.00 | 58 | 1012.1 |
| 20260507050115 | 36 | 110 | 3.0 | 3.0 | 0.00 | 0.00 | 0.00 | 58 | 1012.0 |
| 20260507045612 | 36 | 95 | 3.0 | 3.0 | 0.00 | 0.00 | 0.00 | 58 | 1012.1 |
| 20260507045108 | 36 | 87 | 3.0 | 3.0 | 0.00 | 0.00 | 0.00 | 58 | 1012.2 |
| 20260507044605 | 36 | 101 | 4.0 | 6.0 | 0.00 | 0.00 | 0.00 | 57 | 1012.4 |
| 20260507044102 | 37 | 95 | 4.0 | 5.0 | 0.00 | 0.00 | 0.00 | 56 | 1012.3 |
| 20260507043557 | 37 | 140 | 5.0 | 5.0 | 0.00 | 0.00 | 0.00 | 55 | 1012.4 |
| 20260507043055 | 38 | 77 | 3.0 | 5.0 | 0.00 | 0.00 | 0.00 | 54 | 1012.2 |
| 20260507042551 | 39 | 76 | 4.0 | 5.0 | 0.00 | 0.00 | 0.00 | 54 | 1012.4 |
| 20260507042047 | 38 | 74 | 4.0 | 5.0 | 0.00 | 0.00 | 0.00 | 54 | 1012.3 |
| 20260507041544 | 38 | 82 | 2.0 | 3.0 | 0.00 | 0.00 | 0.00 | 55 | 1012.3 |
| 20260507041041 | 38 | 83 | 3.0 | 3.0 | 0.00 | 0.00 | 0.00 | 54 | 1012.3 |
| 20260507040537 | 38 | 64 | 3.0 | 3.0 | 0.00 | 0.00 | 0.00 | 54 | 1012.5 |
| 20260507040033 | 39 | 75 | 3.0 | 3.0 | 0.00 | 0.00 | 0.00 | 51 | 1012.4 |
| 20260507035530 | 39 | 70 | 3.0 | 3.0 | 0.00 | 0.00 | 0.00 | 51 | 1012.6 |
| 20260507035026 | 39 | 71 | 3.0 | 3.0 | 0.00 | 0.00 | 0.00 | 51 | 1012.4 |
| 20260507034523 | 40 | 73 | 3.0 | 5.0 | 0.00 | 0.00 | 0.00 | 50 | 1012.6 |
| 20260507034021 | 40 | 62 | 4.0 | 5.0 | 0.00 | 0.00 | 0.00 | 50 | 1012.6 |
| 20260507033519 | 40 | 62 | 3.0 | 3.0 | 0.00 | 0.00 | 0.00 | 50 | 1012.9 |
| 20260507033016 | 40 | 69 | 3.0 | 3.0 | 0.00 | 0.00 | 0.00 | 50 | 1012.5 |
| 20260507032512 | 40 | 65 | 2.0 | 3.0 | 0.00 | 0.00 | 0.00 | 50 | 1012.9 |
| 20260507032009 | 40 | 71 | 3.0 | 3.0 | 0.00 | 0.00 | 0.00 | 50 | 1012.6 |
| 20260507031505 | 41 | 56 | 3.0 | 3.0 | 0.00 | 0.00 | 0.00 | 49 | 1012.6 |
| 20260507031003 | 41 | 64 | 3.0 | 5.0 | 0.00 | 0.00 | 0.00 | 49 | 1012.5 |
| 20260507030459 | 41 | 72 | 3.0 | 3.0 | 0.00 | 0.00 | 0.00 | 49 | 1012.6 |
| 20260507025956 | 41 | 60 | 3.0 | 3.0 | 0.00 | 0.00 | 0.00 | 49 | 1012.7 |
| 20260507025453 | 42 | 58 | 3.0 | 3.0 | 0.00 | 0.00 | 0.00 | 48 | 1012.9 |
| 20260507024951 | 42 | 57 | 3.0 | 3.0 | 0.00 | 0.00 | 0.00 | 48 | 1012.9 |
| 20260507024448 | 42 | 54 | 2.0 | 2.0 | 0.00 | 0.00 | 0.00 | 47 | 1012.7 |
| 20260507023944 | 42 | 49 | 3.0 | 5.0 | 0.00 | 0.00 | 0.00 | 47 | 1012.7 |
| 20260507023441 | 43 | 59 | 2.0 | 2.0 | 0.00 | 0.00 | 0.00 | 47 | 1012.6 |
| 20260507022938 | 43 | 58 | 2.0 | 2.0 | 0.00 | 0.00 | 0.00 | 46 | 1012.5 |
| 20260507022436 | 43 | 56 | 3.0 | 3.0 | 0.00 | 0.00 | 0.00 | 46 | 1012.9 |
| 20260507021931 | 44 | 49 | 3.0 | 3.0 | 0.00 | 0.00 | 0.00 | 45 | 1012.6 |
| 20260507021426 | 44 | 56 | 2.0 | 2.0 | 0.00 | 0.00 | 0.00 | 45 | 1012.6 |
| 20260507020924 | 44 | 59 | 2.0 | 2.0 | 0.00 | 0.00 | 0.00 | 44 | 1012.9 |
| 20260507020421 | 45 | 52 | 2.0 | 2.0 | 0.00 | 0.00 | 0.00 | 43 | 1012.7 |
| 20260507015918 | 45 | 51 | 1.0 | 2.0 | 0.00 | 0.00 | 0.00 | 44 | 1012.9 |
| 20260507015416 | 45 | 44 | 1.0 | 2.0 | 0.00 | 0.00 | 0.00 | 43 | 1012.5 |
| 20260507014913 | 46 | 52 | 1.0 | 1.0 | 0.00 | 0.00 | 0.00 | 43 | 1012.7 |
| 20260507014409 | 46 | 46 | 1.0 | 1.0 | 0.00 | 0.00 | 0.00 | 43 | 1012.5 |
| 20260507013905 | 46 | 48 | 2.0 | 3.0 | 0.00 | 0.00 | 0.00 | 42 | 1012.6 |
| 20260507013402 | 47 | 11 | 2.0 | 2.0 | 0.00 | 0.00 | 0.00 | 42 | 1012.5 |
| 20260507012859 | 47 | 25 | 0.0 | 0.0 | 0.00 | 0.00 | 0.00 | 42 | 1012.7 |
| 20260507012355 | 48 | 16 | 3.0 | 3.0 | 0.00 | 0.00 | 0.00 | 42 | 1012.6 |
| 20260507011847 | 48 | 341 | 4.0 | 5.0 | 0.00 | 0.00 | 0.00 | 41 | 1012.6 |
| 20260507011344 | 48 | 348 | 4.0 | 5.0 | 0.00 | 0.00 | 0.00 | 41 | 1012.7 |
| 20260507010838 | 49 | 34 | 1.0 | 2.0 | 0.00 | 0.00 | 0.00 | 40 | 1012.5 |
| 20260507010334 | 49 | 2 | 6.0 | 7.0 | 0.00 | 0.00 | 0.00 | 39 | 1012.9 |
| 20260507005831 | 49 | 7 | 5.0 | 6.0 | 0.00 | 0.00 | 0.00 | 38 | 1012.6 |
| 20260507005328 | 50 | 353 | 4.0 | 5.0 | 0.00 | 0.00 | 0.00 | 38 | 1012.7 |
| 20260507004824 | 50 | 335 | 5.0 | 7.0 | 0.00 | 0.00 | 0.00 | 38 | 1012.9 |
| 20260507004322 | 50 | 340 | 6.0 | 8.0 | 0.00 | 0.00 | 0.00 | 38 | 1013.0 |
| 20260507003819 | 50 | 29 | 5.0 | 6.0 | 0.00 | 0.00 | 0.00 | 38 | 1012.9 |
| 20260507003314 | 50 | 4 | 4.0 | 5.0 | 0.00 | 0.00 | 0.00 | 38 | 1013.1 |
| 20260507002809 | 51 | 349 | 6.0 | 8.0 | 0.00 | 0.00 | 0.00 | 37 | 1012.6 |
| 20260507002306 | 51 | 288 | 5.0 | 5.0 | 0.00 | 0.00 | 0.00 | 37 | 1012.9 |
| 20260507001757 | 51 | 355 | 6.0 | 8.0 | 0.00 | 0.00 | 0.00 | 37 | 1012.5 |
| 20260507001255 | 52 | 321 | 4.0 | 6.0 | 0.00 | 0.00 | 0.00 | 36 | 1012.9 |
| 20260507000751 | 51 | 319 | 7.0 | 8.0 | 0.00 | 0.00 | 0.00 | 37 | 1013.2 |
| 20260507000246 | 52 | 344 | 9.0 | 11.0 | 0.00 | 0.00 | 0.00 | 37 | 1013.2 |
| 20260506235743 | 50 | 300 | 4.0 | 5.0 | 0.00 | 0.00 | 0.00 | 38 | 1013.1 |
| 20260506235239 | 49 | 297 | 5.0 | 6.0 | 0.00 | 0.00 | 0.00 | 39 | 1013.1 |
| 20260506234736 | 50 | 344 | 3.0 | 5.0 | 0.00 | 0.00 | 0.00 | 39 | 1013.1 |
| 20260506234233 | 50 | 316 | 6.0 | 8.0 | 0.00 | 0.00 | 0.00 | 37 | 1013.2 |
| 20260506233731 | 50 | 331 | 8.0 | 9.0 | 0.00 | 0.00 | 0.00 | 38 | 1013.3 |
| 20260506233227 | 51 | 7 | 10.0 | 13.0 | 0.00 | 0.00 | 0.00 | 36 | 1013.3 |
| 20260506232724 | 50 | 335 | 5.0 | 6.0 | 0.00 | 0.00 | 0.00 | 39 | 1013.5 |
| 20260506232218 | 50 | 319 | 6.0 | 7.0 | 0.00 | 0.00 | 0.00 | 38 | 1013.3 |
| 20260506231716 | 51 | 288 | 6.0 | 8.0 | 0.00 | 0.00 | 0.00 | 39 | 1013.5 |
| 20260506231214 | 50 | 299 | 7.0 | 8.0 | 0.00 | 0.00 | 0.00 | 39 | 1013.4 |
| 20260506230710 | 50 | 330 | 5.0 | 7.0 | 0.00 | 0.00 | 0.00 | 41 | 1013.5 |
| 20260506230208 | 51 | 303 | 6.0 | 8.0 | 0.00 | 0.00 | 0.00 | 39 | 1013.5 |
| 20260506225704 | 50 | 305 | 8.0 | 9.0 | 0.00 | 0.00 | 0.00 | 38 | 1013.4 |
| 20260506225201 | 51 | 335 | 11.0 | 11.0 | 0.00 | 0.00 | 0.00 | 36 | 1013.8 |
| 20260506224657 | 50 | 320 | 4.0 | 5.0 | 0.00 | 0.00 | 0.00 | 40 | 1013.6 |
| 20260506224155 | 51 | 296 | 7.0 | 7.0 | 0.00 | 0.00 | 0.00 | 38 | 1013.6 |
| 20260506223651 | 52 | 272 | 8.0 | 9.0 | 0.00 | 0.00 | 0.00 | 38 | 1013.7 |
| 20260506223146 | 52 | 357 | 2.0 | 2.0 | 0.00 | 0.00 | 0.00 | 36 | 1013.7 |
| 20260506222644 | 51 | 22 | 7.0 | 9.0 | 0.00 | 0.00 | 0.00 | 39 | 1013.6 |
| 20260506222139 | 50 | 287 | 5.0 | 6.0 | 0.00 | 0.00 | 0.00 | 39 | 1013.6 |
| 20260506221638 | 52 | 301 | 10.0 | 13.0 | 0.00 | 0.00 | 0.00 | 38 | 1013.8 |
| 20260506221136 | 50 | 310 | 5.0 | 6.0 | 0.00 | 0.00 | 0.00 | 40 | 1013.7 |
| 20260506220632 | 51 | 308 | 5.0 | 7.0 | 0.00 | 0.00 | 0.00 | 41 | 1014.2 |
| 20260506220127 | 51 | 326 | 10.0 | 11.0 | 0.00 | 0.00 | 0.00 | 41 | 1013.9 |
| 20260506215624 | 52 | 254 | 8.0 | 11.0 | 0.00 | 0.00 | 0.00 | 39 | 1014.0 |
| 20260506215119 | 51 | 337 | 6.0 | 7.0 | 0.00 | 0.00 | 0.00 | 38 | 1014.1 |
| 20260506214616 | 49 | 338 | 4.0 | 5.0 | 0.00 | 0.00 | 0.00 | 42 | 1014.2 |
| 20260506214114 | 52 | 326 | 7.0 | 10.0 | 0.00 | 0.00 | 0.00 | 41 | 1014.3 |
| 20260506213612 | 51 | 305 | 2.0 | 2.0 | 0.00 | 0.00 | 0.00 | 45 | 1014.0 |
| 20260506213109 | 50 | 289 | 7.0 | 8.0 | 0.00 | 0.00 | 0.00 | 42 | 1014.3 |
| 20260506212606 | 49 | 292 | 7.0 | 8.0 | 0.00 | 0.00 | 0.00 | 43 | 1014.3 |
| 20260506212101 | 50 | 295 | 8.0 | 8.0 | 0.00 | 0.00 | 0.00 | 42 | 1014.4 |
| 20260506211556 | 49 | 297 | 7.0 | 8.0 | 0.00 | 0.00 | 0.00 | 44 | 1014.8 |
| 20260506211048 | 50 | 285 | 7.0 | 10.0 | 0.00 | 0.00 | 0.00 | 42 | 1014.5 |
| 20260506210545 | 48 | 298 | 10.0 | 13.0 | 0.00 | 0.00 | 0.00 | 42 | 1014.6 |
| 20260506210041 | 49 | 328 | 7.0 | 8.0 | 0.00 | 0.00 | 0.00 | 44 | 1014.8 |
| 20260506205538 | 49 | 289 | 7.0 | 8.0 | 0.00 | 0.00 | 0.00 | 43 | 1014.9 |
| 20260506205033 | 47 | 267 | 9.0 | 13.0 | 0.00 | 0.00 | 0.00 | 44 | 1014.9 |
| 20260506204532 | 47 | 300 | 8.0 | 9.0 | 0.00 | 0.00 | 0.00 | 45 | 1014.9 |
| 20260506204028 | 48 | 309 | 5.0 | 6.0 | 0.00 | 0.00 | 0.00 | 43 | 1015.1 |
| 20260506203527 | 49 | 291 | 8.0 | 9.0 | 0.00 | 0.00 | 0.00 | 42 | 1015.0 |
| 20260506203023 | 51 | 313 | 7.0 | 11.0 | 0.00 | 0.00 | 0.00 | 43 | 1015.3 |
| 20260506202520 | 52 | 296 | 4.0 | 7.0 | 0.00 | 0.00 | 0.00 | 42 | 1015.3 |
| 20260506202016 | 50 | 314 | 6.0 | 9.0 | 0.00 | 0.00 | 0.00 | 43 | 1015.4 |
| 20260506201515 | 49 | 293 | 7.0 | 9.0 | 0.00 | 0.00 | 0.00 | 45 | 1015.4 |
| 20260506201011 | 48 | 312 | 7.0 | 8.0 | 0.00 | 0.00 | 0.00 | 46 | 1015.4 |
| 20260506200507 | 47 | 327 | 2.0 | 2.0 | 0.00 | 0.00 | 0.00 | 44 | 1015.3 |
| 20260506200004 | 48 | 252 | 6.0 | 7.0 | 0.00 | 0.00 | 0.00 | 46 | 1015.4 |
| 20260506195500 | 47 | 329 | 6.0 | 8.0 | 0.00 | 0.00 | 0.00 | 47 | 1015.5 |
| 20260506194956 | 46 | 346 | 7.0 | 8.0 | 0.00 | 0.00 | 0.00 | 47 | 1015.8 |
| 20260506194454 | 47 | 295 | 5.0 | 6.0 | 0.00 | 0.00 | 0.00 | 46 | 1015.5 |
| 20260506193945 | 47 | 319 | 4.0 | 6.0 | 0.00 | 0.00 | 0.00 | 47 | 1015.9 |
| 20260506193442 | 48 | 358 | 6.0 | 7.0 | 0.00 | 0.00 | 0.00 | 46 | 1015.6 |